| time (UTC) | temp C | wind direction | speed KPH | gust KPH | rain 1hr cm | rain 24hr cm | rain mn cm | humidity % | barometer mb |
| 20260506051107 | 17 | 342 | 14.5 | 24.1 | 0.00 | 0.00 | 0.00 | 74 | 1027.3 |
| 20260506045039 | 18 | 349 | 17.7 | 24.1 | 0.00 | 0.00 | 0.00 | 72 | 1027.4 |
| 20260506044055 | 18 | 360 | 16.1 | 25.7 | 0.00 | 0.00 | 0.00 | 72 | 1027.4 |
| 20260506043032 | 18 | 340 | 16.1 | 27.4 | 0.00 | 0.00 | 0.00 | 72 | 1027.5 |
| 20260506042028 | 18 | 328 | 16.1 | 24.1 | 0.00 | 0.00 | 0.00 | 72 | 1027.5 |
| 20260506041025 | 18 | 346 | 16.1 | 27.4 | 0.00 | 0.00 | 0.00 | 72 | 1027.7 |
| 20260506040021 | 18 | 0 | 19.3 | 27.4 | 0.00 | 0.00 | 0.00 | 72 | 1027.7 |
| 20260506035017 | 18 | 326 | 19.3 | 32.2 | 0.00 | 0.00 | 0.00 | 73 | 1027.7 |
| 20260506034117 | 18 | 338 | 20.9 | 29.0 | 0.00 | 0.00 | 0.00 | 73 | 1027.7 |
| 20260506033113 | 18 | 328 | 20.9 | 27.4 | 0.00 | 0.00 | 0.00 | 73 | 1027.6 |
| 20260506032109 | 18 | 346 | 22.5 | 37.0 | 0.00 | 0.00 | 0.00 | 72 | 1027.7 |
| 20260506031144 | 18 | 334 | 24.1 | 33.8 | 0.00 | 0.00 | 0.00 | 72 | 1027.7 |
| 20260506030100 | 18 | 356 | 20.9 | 27.4 | 0.00 | 0.00 | 0.00 | 72 | 1027.7 |
| 20260506025057 | 18 | 312 | 20.9 | 29.0 | 0.00 | 0.00 | 0.00 | 72 | 1027.7 |
| 20260506024053 | 18 | 356 | 20.9 | 29.0 | 0.00 | 0.00 | 0.00 | 72 | 1027.6 |
| 20260506023132 | 18 | 352 | 17.7 | 27.4 | 0.00 | 0.00 | 0.00 | 72 | 1027.7 |
| 20260506022046 | 18 | 345 | 20.9 | 29.0 | 0.00 | 0.00 | 0.00 | 72 | 1027.7 |
| 20260506021103 | 18 | 348 | 22.5 | 30.6 | 0.00 | 0.00 | 0.00 | 72 | 1027.9 |
| 20260506020040 | 18 | 349 | 20.9 | 27.4 | 0.00 | 0.00 | 0.00 | 73 | 1028.0 |
| 20260506015037 | 18 | 0 | 20.9 | 29.0 | 0.00 | 0.00 | 0.00 | 71 | 1028.0 |
| 20260506014054 | 19 | 354 | 14.5 | 29.0 | 0.00 | 0.00 | 0.00 | 72 | 1028.0 |
| 20260506013030 | 18 | 357 | 22.5 | 33.8 | 0.00 | 0.00 | 0.00 | 72 | 1028.0 |
| 20260506012025 | 18 | 352 | 17.7 | 27.4 | 0.00 | 0.00 | 0.00 | 72 | 1028.0 |
| 20260506011022 | 18 | 15 | 19.3 | 33.8 | 0.00 | 0.00 | 0.00 | 73 | 1028.1 |
| 20260506010018 | 18 | 358 | 20.9 | 37.0 | 0.00 | 0.00 | 0.00 | 74 | 1028.2 |
| 20260506005115 | 18 | 336 | 22.5 | 37.0 | 0.00 | 0.00 | 0.00 | 74 | 1028.4 |
| 20260506004111 | 17 | 8 | 17.7 | 24.1 | 0.00 | 0.00 | 0.00 | 74 | 1028.5 |
| 20260506003110 | 17 | 359 | 22.5 | 29.0 | 0.00 | 0.00 | 0.00 | 74 | 1028.7 |
| 20260506002107 | 17 | 334 | 22.5 | 30.6 | 0.00 | 0.00 | 0.00 | 76 | 1029.0 |
| 20260506001102 | 17 | 347 | 20.9 | 33.8 | 0.00 | 0.00 | 0.00 | 77 | 1029.1 |
| 20260506000057 | 17 | 347 | 19.3 | 25.7 | 0.00 | 0.00 | 0.00 | 81 | 1029.2 |
| 20260505235054 | 17 | 349 | 17.7 | 25.7 | 0.00 | 0.00 | 0.00 | 80 | 1029.2 |
| 20260505234111 | 17 | 341 | 17.7 | 25.7 | 0.00 | 0.00 | 0.00 | 79 | 1029.1 |
| 20260505233048 | 17 | 350 | 16.1 | 24.1 | 0.00 | 0.00 | 0.00 | 75 | 1029.3 |
| 20260505231041 | 17 | 3 | 17.7 | 25.7 | 0.00 | 0.00 | 0.00 | 74 | 1029.4 |
| 20260505230037 | 18 | 0 | 19.3 | 32.2 | 0.00 | 0.00 | 0.00 | 72 | 1029.4 |
| 20260505225035 | 18 | 356 | 19.3 | 30.6 | 0.00 | 0.00 | 0.00 | 72 | 1029.5 |
| 20260505224032 | 18 | 2 | 20.9 | 33.8 | 0.00 | 0.00 | 0.00 | 71 | 1029.4 |
| 20260505223027 | 18 | 6 | 16.1 | 25.7 | 0.00 | 0.00 | 0.00 | 72 | 1029.5 |
| 20260505222023 | 18 | 7 | 19.3 | 29.0 | 0.00 | 0.00 | 0.00 | 72 | 1029.4 |
| 20260505221020 | 17 | 359 | 17.7 | 24.1 | 0.00 | 0.00 | 0.00 | 72 | 1029.5 |
| 20260505220038 | 17 | 8 | 20.9 | 32.2 | 0.00 | 0.00 | 0.00 | 73 | 1029.5 |
| 20260505215115 | 17 | 1 | 19.3 | 27.4 | 0.00 | 0.00 | 0.00 | 76 | 1029.6 |
| 20260505214110 | 17 | 2 | 17.7 | 27.4 | 0.00 | 0.00 | 0.00 | 74 | 1029.6 |
| 20260505213107 | 17 | 359 | 17.7 | 29.0 | 0.00 | 0.00 | 0.00 | 79 | 1029.7 |
| 20260505212104 | 17 | 0 | 17.7 | 29.0 | 0.00 | 0.00 | 0.00 | 82 | 1029.8 |
| 20260505211100 | 16 | 356 | 16.1 | 25.7 | 0.00 | 0.00 | 0.00 | 84 | 1029.9 |
| 20260505210056 | 15 | 0 | 14.5 | 20.9 | 0.00 | 0.00 | 0.00 | 84 | 1030.0 |
| 20260505205053 | 15 | 354 | 16.1 | 25.7 | 0.00 | 0.00 | 0.00 | 84 | 1030.0 |
| 20260505204052 | 15 | 359 | 12.9 | 24.1 | 0.00 | 0.00 | 0.00 | 84 | 1030.0 |
| 20260505203048 | 15 | 9 | 14.5 | 24.1 | 0.00 | 0.00 | 0.00 | 84 | 1029.8 |
| 20260505202043 | 15 | 2 | 14.5 | 19.3 | 0.00 | 0.00 | 0.00 | 84 | 1029.7 |
| 20260505201040 | 15 | 347 | 14.5 | 22.5 | 0.00 | 0.00 | 0.00 | 84 | 1029.7 |
| 20260505200059 | 15 | 14 | 16.1 | 24.1 | 0.00 | 0.00 | 0.00 | 84 | 1029.7 |
| 20260505195033 | 15 | 360 | 14.5 | 22.5 | 0.00 | 0.00 | 0.00 | 83 | 1029.6 |
| 20260505194029 | 15 | 5 | 12.9 | 24.1 | 0.00 | 0.00 | 0.00 | 83 | 1029.6 |
| 20260505193027 | 15 | 352 | 14.5 | 22.5 | 0.00 | 0.00 | 0.00 | 83 | 1029.5 |
| 20260505192022 | 15 | 354 | 12.9 | 20.9 | 0.00 | 0.00 | 0.00 | 83 | 1029.5 |
| 20260505191019 | 15 | 12 | 14.5 | 22.5 | 0.00 | 0.00 | 0.00 | 83 | 1029.5 |
| 20260505190015 | 15 | 14 | 12.9 | 22.5 | 0.00 | 0.00 | 0.00 | 84 | 1029.6 |
| 20260505185113 | 15 | 22 | 11.3 | 17.7 | 0.00 | 0.00 | 0.00 | 84 | 1029.6 |
| 20260505183107 | 15 | 348 | 14.5 | 20.9 | 0.00 | 0.00 | 0.00 | 84 | 1029.6 |
| 20260505182125 | 15 | 351 | 11.3 | 17.7 | 0.00 | 0.00 | 0.00 | 85 | 1029.6 |
| 20260505181121 | 15 | 358 | 14.5 | 22.5 | 0.00 | 0.00 | 0.00 | 85 | 1029.7 |
| 20260505180055 | 15 | 359 | 14.5 | 24.1 | 0.00 | 0.00 | 0.00 | 85 | 1029.7 |
| 20260505175054 | 15 | 350 | 14.5 | 24.1 | 0.00 | 0.00 | 0.00 | 85 | 1029.7 |
| 20260505174048 | 15 | 12 | 12.9 | 20.9 | 0.00 | 0.00 | 0.00 | 86 | 1029.7 |
| 20260505173045 | 15 | 344 | 16.1 | 24.1 | 0.00 | 0.00 | 0.00 | 87 | 1029.8 |
| 20260505172041 | 15 | 345 | 16.1 | 27.4 | 0.00 | 0.00 | 0.00 | 88 | 1029.8 |
| 20260505171038 | 15 | 349 | 16.1 | 22.5 | 0.00 | 0.00 | 0.00 | 89 | 1029.7 |
| 20260505170056 | 15 | 315 | 12.9 | 17.7 | 0.00 | 0.00 | 0.00 | 90 | 1029.6 |
| 20260505165055 | -17 | 0.0 | 0.0 | 0.00 | 0.00 | 0.00 | 1029.6 | ||
| 20260505164030 | -17 | 0.0 | 0.0 | 0.00 | 0.00 | 0.00 | 1029.6 | ||
| 20260505163025 | 14 | 0 | 6.4 | 9.7 | 0.00 | 0.00 | 0.00 | 85 | 1029.8 |
| 20260505162021 | 14 | 351 | 8.0 | 12.9 | 0.00 | 0.00 | 0.00 | 85 | 1029.8 |
| 20260505161018 | 14 | 356 | 11.3 | 17.7 | 0.00 | 0.00 | 0.00 | 84 | 1029.9 |
| 20260505160114 | 15 | 357 | 17.7 | 27.4 | 0.00 | 0.00 | 0.00 | 82 | 1030.0 |
| 20260505153104 | 15 | 12 | 12.9 | 22.5 | 0.00 | 0.00 | 0.00 | 81 | 1030.2 |
| 20260505152101 | 15 | 349 | 14.5 | 29.0 | 0.00 | 0.00 | 0.00 | 81 | 1030.3 |
| 20260505151057 | 15 | 360 | 14.5 | 22.5 | 0.00 | 0.00 | 0.00 | 81 | 1030.5 |
| 20260505130112 | 15 | 1 | 12.9 | 20.9 | 0.00 | 0.00 | 0.00 | 74 | 1031.3 |
| 20260505124105 | 15 | 356 | 11.3 | 19.3 | 0.00 | 0.00 | 0.00 | 75 | 1031.4 |
| 20260505123104 | 15 | 12 | 11.3 | 17.7 | 0.00 | 0.00 | 0.00 | 76 | 1031.4 |
| 20260505122058 | 15 | 26 | 12.9 | 20.9 | 0.00 | 0.00 | 0.00 | 77 | 1031.3 |
| 20260505121056 | 15 | 5 | 9.7 | 16.1 | 0.00 | 0.00 | 0.00 | 80 | 1031.3 |
| 20260505120053 | 14 | 23 | 9.7 | 14.5 | 0.00 | 0.00 | 0.00 | 80 | 1031.3 |
| 20260505115108 | 14 | 30 | 11.3 | 17.7 | 0.00 | 0.00 | 0.00 | 80 | 1031.2 |
| 20260505114105 | 14 | 25 | 8.0 | 12.9 | 0.00 | 0.00 | 0.00 | 80 | 1031.3 |
| 20260505113041 | 14 | 21 | 4.8 | 12.9 | 0.00 | 0.00 | 0.00 | 78 | 1031.4 |
| 20260505112038 | 15 | 16 | 9.7 | 20.9 | 0.00 | 0.00 | 0.00 | 75 | 1031.6 |
| 20260505111056 | 15 | 356 | 12.9 | 24.1 | 0.00 | 0.00 | 0.00 | 72 | 1031.7 |
| 20260505102019 | 15 | 5 | 8.0 | 14.5 | 0.00 | 0.00 | 0.00 | 71 | 1031.9 |
| 20260505101117 | 15 | 3 | 8.0 | 14.5 | 0.00 | 0.00 | 0.00 | 71 | 1031.8 |
| 20260505100111 | 15 | 14 | 8.0 | 12.9 | 0.00 | 0.00 | 0.00 | 71 | 1031.8 |
| 20260505095110 | 15 | 10 | 6.4 | 12.9 | 0.00 | 0.00 | 0.00 | 71 | 1031.7 |
| 20260505094104 | 15 | 11 | 9.7 | 17.7 | 0.00 | 0.00 | 0.00 | 71 | 1031.8 |
| 20260505093122 | 15 | 349 | 9.7 | 19.3 | 0.00 | 0.00 | 0.00 | 71 | 1031.8 |
| 20260505092057 | 15 | 0 | 6.4 | 9.7 | 0.00 | 0.00 | 0.00 | 71 | 1031.6 |
| 20260505091056 | 15 | 358 | 6.4 | 11.3 | 0.00 | 0.00 | 0.00 | 71 | 1031.7 |
| 20260505090051 | 15 | 3 | 8.0 | 12.9 | 0.00 | 0.00 | 0.00 | 71 | 1031.7 |
| 20260505085050 | 15 | 7 | 6.4 | 12.9 | 0.00 | 0.00 | 0.00 | 71 | 1031.7 |
| 20260505084045 | 15 | 8 | 8.0 | 11.3 | 0.00 | 0.00 | 0.00 | 72 | 1031.6 |
| 20260505083101 | 15 | 5 | 6.4 | 11.3 | 0.00 | 0.00 | 0.00 | 73 | 1031.6 |
| 20260505082036 | 14 | 3 | 4.8 | 8.0 | 0.00 | 0.00 | 0.00 | 73 | 1031.8 |
| 20260505081033 | 14 | 23 | 3.2 | 6.4 | 0.00 | 0.00 | 0.00 | 72 | 1031.7 |
| 20260505080030 | 14 | 58 | 6.4 | 11.3 | 0.00 | 0.00 | 0.00 | 72 | 1031.7 |
| 20260505075029 | 15 | 43 | 6.4 | 12.9 | 0.00 | 0.00 | 0.00 | 72 | 1031.8 |
| 20260505074025 | 15 | 60 | 4.8 | 11.3 | 0.00 | 0.00 | 0.00 | 72 | 1031.8 |
| 20260505073025 | 15 | 21 | 4.8 | 8.0 | 0.00 | 0.00 | 0.00 | 72 | 1031.8 |
| 20260505072021 | 14 | 24 | 6.4 | 12.9 | 0.00 | 0.00 | 0.00 | 74 | 1031.8 |
| 20260505071020 | 14 | 35 | 6.4 | 14.5 | 0.00 | 0.00 | 0.00 | 77 | 1031.8 |
| 20260505070018 | 13 | 20 | 6.4 | 11.3 | 0.00 | 0.00 | 0.00 | 80 | 1031.8 |
| 20260505065115 | 13 | 36 | 6.4 | 9.7 | 0.00 | 0.00 | 0.00 | 81 | 1031.8 |
| 20260505064133 | 13 | 13 | 4.8 | 8.0 | 0.00 | 0.00 | 0.00 | 80 | 1031.8 |
| 20260505063103 | 13 | 45 | 1.6 | 4.8 | 0.00 | 0.00 | 0.00 | 79 | 1031.8 |
| 20260505062103 | 13 | 45 | 3.2 | 4.8 | 0.00 | 0.00 | 0.00 | 78 | 1031.8 |
| 20260505061114 | 13 | 26 | 3.2 | 6.4 | 0.00 | 0.00 | 0.00 | 75 | 1031.7 |
| 20260505060054 | 13 | 69 | 3.2 | 6.4 | 0.00 | 0.00 | 0.00 | 72 | 1031.6 |
| 20260505055052 | 13 | 50 | 3.2 | 4.8 | 0.00 | 0.00 | 0.00 | 70 | 1031.5 |
| 20260505054042 | 15 | 82 | 1.6 | 4.8 | 0.00 | 0.00 | 0.00 | 64 | 1031.4 |